Location: Garnerans
(46.2058°N, 4.8408°E)
Time: 03:57:55
(UTC+00:00)

Daily predictions for brighter satellites

Satellite Brightness Start Highest point End
(mag) Time Altitude Azimuth Time Altitude Azimuth Time Altitude Azimuth
ATLAS 5 CENTAUR R/B 4.3 02:12:25 22° ESE 02:12:25 22° ESE 02:14:49 10° ESE
Cosmos 1833 Rocket 4.5 02:15:19 26° E 02:15:19 26° E 02:18:51 10° NE
ATLAS 2AS CENTAUR R/B 3.6 02:22:31 46° N 02:22:31 46° N 02:28:15 10° NE
ADEOS II 4.5 02:17:04 10° N 02:18:01 16° N 02:18:01 16° N
Cosmos 1980 Rocket 4.1 02:24:26 10° N 02:29:12 26° NE 02:33:54 10° ESE
CZ-2C R/B 4.4 02:27:08 10° NE 02:31:00 24° E 02:31:00 24° E
Cosmos 1697 Rocket 3.8 02:50:39 37° ESE 02:50:39 37° ESE 02:54:09 10° SE
COSMOS 2406 3.7 03:01:40 56° ESE 03:01:54 57° ESE 03:07:33 10° NNE
Cosmos 2074 Rocket 4.0 02:56:32 10° N 03:02:50 77° E 03:04:29 51° SSE
Lacrosse 5 3.6 03:07:24 24° N 03:07:33 24° N 03:11:41 10° ENE
Cosmos 2208 Rocket 4.5 03:10:35 54° ESE 03:10:50 55° ESE 03:15:57 10° NNE
IRS-P3 4.5 03:06:27 10° NNE 03:10:40 57° N 03:10:40 57° N
Cosmos 1066 Rocket 4.2 03:13:16 70° ESE 03:13:25 70° E 03:18:46 10° NNE
Cosmos 921 Rocket 3.8 03:19:50 48° ENE 03:19:50 48° ENE 03:23:19 10° NNE
Cosmos 2082 Rocket 2.8 03:27:07 29° S 03:29:50 55° ESE 03:35:25 10° NE
IRIDIUM 104 4.4 03:27:50 38° SSE 03:29:53 74° E 03:35:07 10° N
Spot 4 Rocket 4.2 03:25:44 10° NNE 03:30:53 69° ESE 03:32:47 39° S
Cosmos 841 Rocket 4.2 03:32:41 40° NNW 03:32:41 40° NNW 03:36:33 10° NNE
SME Rocket 3.9 03:25:40 10° SSE 03:32:57 79° ENE 03:37:49 10° NNW
NOAA 9 4.5 03:30:34 10° NNE 03:36:00 84° WNW 03:37:00 61° SSW
PAYLOAD A 3.8 03:32:16 10° NNE 03:37:16 85° WNW 03:37:54 69° SSW
ATLAS CENTAUR R/B 3.2 03:36:08 22° SSE 03:37:34 27° ESE 03:41:09 10° ENE
IRIDIUM 114 4.2 03:36:59 39° S 03:39:01 89° E 03:44:16 10° N
Cosmos 2150 Rocket 4.2 03:34:30 10° NNW 03:39:47 69° ENE 03:44:56 10° SSE
Cosmos 1570 Rocket 3.9 03:42:27 66° W 03:42:43 67° WNW 03:48:02 10° NNE
SL-4 R/B 2.7 03:45:18 47° N 03:45:18 47° N 03:49:17 10° ENE
ARIANE 5 R/B 2.8 03:41:30 10° N 03:45:41 48° NW 03:45:41 48° NW
Okean 2 Rocket 4.0 03:41:59 10° N 03:46:23 49° ENE 03:50:46 10° SSE
GP-B 3.1 03:44:05 22° S 03:46:53 82° E 03:51:21 10° N
USA 234 3.2 03:40:51 10° NE 03:47:25 89° SSE 03:50:06 39° SW
IRIDIUM 103 4.2 03:46:07 38° SSW 03:48:11 77° W 03:53:26 10° N
Cosmos 2327 Rocket 4.4 03:45:03 10° N 03:51:25 77° W 03:57:38 10° S
ATLAS 5 CENTAUR R/B 2.9 03:54:03 38° SW 03:54:03 38° SW 03:59:25 10° S
FALCON 9 DEB 4.3 03:54:48 33° ESE 03:54:48 33° ESE 03:56:38 10° ESE
Meteor 1-12 Rocket 4.4 03:49:24 10° NNW 03:59:18 15° SSW 04:00:12 10° SSW
Cosmos 1833 Rocket 2.9 03:57:03 45° W 03:57:47 48° WNW 04:03:13 10° NNE
Cosmos 2369 3.6 03:53:07 15° NNW 03:57:56 64° WSW 04:03:35 10° SSE
Cosmos 405 3.8 03:54:42 10° N 03:58:05 49° ENE 04:01:26 10° SSE
Nadezhda 1 Rocket 3.8 03:57:23 20° SSW 04:01:39 64° W 04:07:42 10° N
CZ-4B R/B 3.6 03:57:45 10° N 04:02:55 56° WNW 04:04:42 38° SW
CZ-2C R/B 2.5 03:59:30 10° N 04:03:14 80° WNW 04:03:37 69° SW
Lacrosse 5 rocket 3.1 04:01:20 14° S 04:04:13 29° SE 04:08:01 10° ENE
USA 229 DEB 4.2 03:56:57 10° NW 04:04:14 68° NE 04:11:59 10° SE
USA 229 4.2 03:57:03 10° NW 04:04:20 67° NE 04:12:04 10° SE
DELTA 2 R/B (1) 4.4 04:03:59 30° SW 04:04:49 31° SSW 04:09:39 10° SE
Cosmos 1470 3.6 04:01:13 10° N 04:05:04 51° ENE 04:08:52 10° SSE
IRIDIUM 106 4.4 04:04:19 32° SW 04:06:31 53° W 04:11:38 10° N
ALOS 2.2 04:02:07 10° N 04:06:45 61° WNW 04:08:34 35° SW
Cosmos 1610 Rocket 4.5 04:01:03 10° NNW 04:07:06 57° W 04:13:11 10° SSW
BREEZE-M DEB (TANK) 2.6 04:07:19 37° SSE 04:07:22 37° SSE 04:10:07 10° ENE
METEOR-M 4.1 04:03:55 10° NNE 04:09:18 89° WNW 04:14:39 10° SSW
CZ-2C R/B 2.7 04:04:48 10° N 04:09:32 45° WNW 04:10:22 41° W
Cosmos 1484 Rocket 2.6 04:06:58 10° NNE 04:10:45 89° ESE 04:13:32 18° SSW
Cosmos 1726 2.1 04:07:15 10° N 04:10:56 78° E 04:14:36 10° SSE
ATLAS 2AS CENTAUR R/B 4.3 04:09:58 17° NW 04:13:34 24° NNW 04:19:25 10° NE
Cosmos 1980 Rocket 2.1 04:07:59 10° NNW 04:13:38 63° WSW 04:19:14 10° S
Cosmos 2341 Rocket 4.0 04:08:55 10° N 04:15:18 90° WSW 04:21:35 10° S
Meteor 1-22 Rocket 4.2 04:10:35 10° NNW 04:16:37 76° W 04:22:25 10° S
Meteor 1-23 Rocket 4.3 04:15:58 13° SSW 04:20:57 54° WNW 04:26:32 10° N
Cosmos 2298 Rocket 4.1 04:16:45 10° NNW 04:21:52 51° WSW 04:26:58 10° S
Envisat 4.5 04:17:40 10° NNE 04:22:26 39° E 04:27:10 10° SSE
FALCON 9 DEB 2.6 04:22:36 66° WSW 04:22:47 69° SW 04:25:47 10° SE
Cosmos 44 4.3 04:18:34 10° NNW 04:23:24 44° NE 04:27:55 10° ESE
FALCON 9 DEB 3.2 04:25:45 42° SSW 04:25:45 42° SSW 04:28:26 10° SE
Cosmos 2151 Rocket 3.4 04:21:15 10° N 04:25:40 81° W 04:30:03 10° S
SJ-6F 4.5 04:22:05 10° NNE 04:26:19 84° ESE 04:30:30 10° SSW
NOSS 3-1 (A) 4.1 04:18:54 10° NW 04:26:26 88° NE 04:35:14 10° SE
Cosmos 836 Rocket 4.4 04:21:17 10° SSW 04:26:32 84° WNW 04:31:51 10° NNE
Okean 1 Rocket 3.9 04:23:06 10° N 04:27:26 52° ENE 04:31:45 10° SSE
FENGYUN 3A 4.1 04:23:23 10° N 04:28:26 41° WNW 04:32:06 18° SW
COSMOS 2455 3.4 04:24:44 10° SSW 04:30:37 60° ESE 04:36:34 10° NE
FALCON 9 DEB 2.8 04:30:52 48° W 04:31:27 62° SW 04:34:27 10° SE
Cosmos 1697 Rocket 3.7 04:32:35 23° WSW 04:32:35 23° WSW 04:36:29 10° SSW
FALCON 9 DEB 3.1 04:31:28 39° W 04:32:27 58° SW 04:35:46 10° SE
Sich 1 Rocket 3.9 04:28:24 10° NNW 04:32:32 40° W 04:36:40 10° SSW
GEOS 3 Rocket 3.6 04:28:22 10° NE 04:33:33 83° SE 04:38:38 10° SW
Cosmos 1674 Rocket 3.5 04:30:19 10° S 04:34:40 85° E 04:39:01 10° N
SKYMED 2 4.2 04:31:20 10° SSE 04:35:36 59° ENE 04:39:54 10° N
BREEZE M DEB (TANK) 3.5 04:30:27 18° WNW 04:35:43 56° SW 04:38:48 10° SE
Cosmos 1300 Rocket 4.1 04:32:55 10° NNW 04:36:49 33° W 04:40:43 10° SSW
Landsat 5 3.9 04:34:19 10° SSE 04:38:06 60° ENE 04:42:00 10° N
Cosmos 2278 3.9 04:36:23 10° NW 04:41:53 50° WSW 04:47:22 10° S
Cosmos 1125 Rocket 3.9 04:38:58 10° NW 04:43:47 39° WSW 04:48:33 10° S
COSMOS 2406 4.2 04:43:46 20° W 04:46:33 28° NW 04:51:32 10° N
CZ-4B R/B 4.0 04:47:47 10° NNE 04:51:25 66° ESE 04:55:03 10° S
Lacrosse 5 3.0 04:46:52 10° NW 04:51:40 40° NNE 04:56:26 10° E
CZ-4C R/B 4.0 04:45:41 10° NNW 04:52:13 41° NE 04:59:51 10° ESE
Cosmos 1674 3.5 04:48:58 10° S 04:52:33 53° E 04:56:12 10° NNE
Cosmos 1461 3.5 04:51:21 17° WSW 04:54:13 38° NW 04:58:10 10° NNE
PSLV R/B 4.2 04:50:47 10° N 04:54:45 35° WNW 04:58:43 10° SW
Cosmos 773 Rocket 4.4 04:49:43 10° S 04:54:51 67° ESE 05:00:04 10° NNE
Cosmos 1340 3.1 04:51:29 10° SW 04:55:01 39° WNW 04:58:35 10° N
NOSS 3-1 (C) 4.4 04:48:44 10° NW 04:55:58 46° WSW 05:04:14 10° S
Cosmos 2366 rocket 4.0 04:50:44 10° NNW 04:57:00 68° W 05:03:18 10° S
Cosmos 1959 Rocket 4.4 04:53:00 10° NNW 04:59:02 65° W 05:05:04 10° S
Cosmos 1184 Rocket 4.2 04:56:10 10° SSE 04:59:12 41° E 05:02:14 10° NNE
SL-16 R/B 2.2 04:53:53 10° NNW 04:59:36 88° ENE 05:05:17 10° SSE
H-2A R/B 3.6 04:56:24 10° SE 05:00:19 37° ENE 05:04:11 10° N
Cosmos 864 Rocket 4.5 04:55:34 10° NNW 05:01:39 64° W 05:07:45 10° S
In-Cosmos 22 4.0 04:59:40 10° SSW 05:04:59 83° W 05:10:18 10° N
Cosmos 371 Rocket 3.4 05:00:33 10° NNW 05:05:29 82° ENE 05:10:22 10° SSE
Cosmos 1842 4.5 05:04:23 10° WSW 05:07:28 22° WNW 05:10:34 10° NNW
Cosmos 2181 Rocket 4.1 05:01:55 10° SSW 05:07:54 55° WNW 05:14:01 10° N
KORONAS-FOTON 3.8 05:04:22 10° S 05:08:07 86° E 05:11:55 10° N
Meteor 1-21 4.3 05:03:00 10° SSW 05:08:36 57° WNW 05:14:10 10° N
Meteor 1-31 Rocket 2.6 05:05:47 10° N 05:09:37 76° WNW 05:13:23 10° SSW
Cosmos 2333 Rocket 4.0 05:04:48 10° N 05:09:52 31° NE 05:14:56 10° ESE
Cosmos 1626 2.8 05:09:14 10° S 05:12:52 60° E 05:16:32 10° NNE
Cosmos 2082 Rocket 3.1 05:09:20 10° WSW 05:14:15 29° NW 05:19:12 10° N
IRAS Rocket 4.3 05:10:19 10° SSE 05:15:56 77° WSW 05:21:37 10° NNW
ATLAS CENTAUR R/B 2.0 05:12:33 10° WSW 05:16:18 37° NW 05:20:20 10° NNE
Cosmos 389 Rocket 2.8 05:14:25 10° NNW 05:17:45 43° W 05:21:06 10° SSW
Cosmos 2322 Rocket 2.2 05:12:20 10° NNW 05:18:00 88° WSW 05:23:41 10° SSE
Cosmos 1707 3.5 05:19:02 10° SW 05:22:30 30° WNW 05:26:01 10° N
SL-27 R/B 4.5 05:19:43 10° SSE 05:22:41 32° ESE 05:25:40 10° NE
COSMO-SKYMED 1 2.9 05:19:36 10° S 05:23:45 43° W 05:27:55 10° NNW
SL-4 R/B 2.9 05:21:16 10° WNW 05:25:23 40° N 05:29:11 10° ENE
Nadezhda 3 Rocket 4.2 05:20:03 10° S 05:26:11 81° E 05:32:22 10° N
Cosmos 1908 3.1 05:24:04 10° NNW 05:27:53 66° W 05:31:39 10° S
Okean 2 4.4 05:25:32 10° SW 05:28:56 25° WNW 05:32:23 10° NNW
USA 234 3.8 05:24:00 10° NE 05:30:05 43° NNW 05:36:11 10° W
